Retour au catalogue

STARLINK-36445

ActifCommunicationsVLEO
NORAD 67313·PAYLOAD·🇺🇸 United States

Lancé Jan 4, 2026 depuis Cape Canaveral Space Force Station

Loading…

Prochains Passages (prochaines 24 heures)

TLE

FraisSource: CelesTrak SupGP

Époque: Sep 14, 2026, 21:41 UTC

1 67313C 26002J   26257.90395833 -.00022891  00000+0 -82941-3 0  2579
2 67313  43.0015 337.0273 0001506 275.2716  57.0081 15.27577823    11

Suivez STARLINK-36445 en temps réel avec AllMySat

Download on the App Store